When you browse on this site, cookies collect data to enhance your experience and personalize the content and advertising you see.
Visit our Privacy Policy to learn more. By continuing to use the site, you agree to this use of cookies and data.
  • Em Portugal
  • Lista de países
  • Para 7 dias
  • Temperatura da água
  • Mapas de satélite
  • Mapa do tempo
  • Widgets de tempo
  • user-avatar
    Iniciar Sessão

    Previsão horária em Vratsa

    Hoje, 16 Janeiro, Quarta-feira

    Tempo Temperatura Precipitação Vento Pressão Humidade
    00:00 -7°C° 0 mm 3 m/s 706 mmHg 83%
    01:00 -7°C° 0 mm 3 m/s 706 mmHg 82%
    02:00 -7°C° 0 mm 3 m/s 706 mmHg 82%
    03:00 -7°C° 0 mm 3 m/s 706 mmHg 82%
    04:00 -7°C° 0 mm 3 m/s 706 mmHg 81%
    05:00 -7°C° 0 mm 3 m/s 706 mmHg 81%
    06:00 -7°C° 0 mm 3 m/s 706 mmHg 80%
    07:00 -7°C° 0 mm 3 m/s 706 mmHg 79%
    08:00 -5°C° 0 mm 4 m/s 706 mmHg 75%
    09:00 -4°C° 0 mm 4 m/s 706 mmHg 74%
    10:00 -3°C° 0 mm 4 m/s 706 mmHg 74%
    11:00 -2°C° 0 mm 4 m/s 706 mmHg 73%
    12:00 -1°C° 0 mm 4 m/s 706 mmHg 73%
    13:00 +1°C° 0 mm 3 m/s 706 mmHg 72%
    14:00 +1°C° 0 mm 3 m/s 706 mmHg 72%
    15:00 +1°C° 0 mm 3 m/s 706 mmHg 72%
    16:00 0°C° 0 mm 3 m/s 707 mmHg 73%
    17:00 -1°C° 0 mm 3 m/s 707 mmHg 73%
    18:00 -1°C° 0 mm 3 m/s 707 mmHg 73%
    19:00 -2°C° 0 mm 3 m/s 707 mmHg 73%
    20:00 -2°C° 0 mm 3 m/s 707 mmHg 72%
    21:00 -2°C° 0 mm 3 m/s 708 mmHg 72%
    22:00 -2°C° 0 mm 3 m/s 708 mmHg 71%
    23:00 -2°C° 0 mm 3 m/s 708 mmHg 70%

    Amanhã, 17 Janeiro, Quinta-feira

    Tempo Temperatura Precipitação Vento Pressão Humidade
    00:00 -2°C° 0 mm 3 m/s 708 mmHg 69%
    01:00 -4°C° 0 mm 3 m/s 708 mmHg 69%
    02:00 -4°C° 0 mm 3 m/s 709 mmHg 69%
    03:00 -4°C° 0 mm 3 m/s 708 mmHg 69%
    04:00 -4°C° 0 mm 3 m/s 708 mmHg 69%
    05:00 -4°C° 0 mm 3 m/s 708 mmHg 69%
    06:00 -4°C° 0 mm 3 m/s 708 mmHg 69%
    07:00 -4°C° 0 mm 3 m/s 708 mmHg 69%
    08:00 -4°C° 0 mm 3 m/s 708 mmHg 69%
    09:00 -1°C° 0 mm 3 m/s 708 mmHg 69%
    10:00 0°C° 0 mm 3 m/s 709 mmHg 69%
    11:00 +3°C° 0 mm 2 m/s 709 mmHg 69%
    12:00 +3°C° 0 mm 2 m/s 709 mmHg 69%
    13:00 +4°C° 0 mm 2 m/s 708 mmHg 70%
    14:00 +5°C° 0 mm 2 m/s 708 mmHg 70%
    15:00 +4°C° 0 mm 2 m/s 708 mmHg 71%
    16:00 +3°C° 0 mm 2 m/s 708 mmHg 71%
    17:00 +2°C° 0 mm 2 m/s 707 mmHg 71%
    18:00 +1°C° 0 mm 2 m/s 708 mmHg 72%
    19:00 +1°C° 0 mm 2 m/s 708 mmHg 72%
    20:00 -1°C° 0 mm 2 m/s 708 mmHg 72%
    21:00 -1°C° 0 mm 2 m/s 708 mmHg 72%
    22:00 -1°C° 0 mm 2 m/s 708 mmHg 72%
    23:00 -1°C° 0 mm 2 m/s 708 mmHg 73%

    Depois de amanhã, 18 Janeiro, Sexta-feira

    Tempo Temperatura Precipitação Vento Pressão Humidade
    00:00 -1°C° 0 mm 2 m/s 708 mmHg 72%
    01:00 -1°C° 0 mm 2 m/s 708 mmHg 71%
    02:00 -2°C° 0 mm 2 m/s 708 mmHg 70%
    03:00 -2°C° 0 mm 2 m/s 707 mmHg 69%
    04:00 -2°C° 0 mm 2 m/s 707 mmHg 68%
    05:00 -2°C° 0 mm 2 m/s 707 mmHg 66%
    06:00 -2°C° 0 mm 2 m/s 707 mmHg 66%
    07:00 -2°C° 0 mm 2 m/s 707 mmHg 65%
    08:00 -2°C° 0 mm 3 m/s 707 mmHg 64%
    09:00 -1°C° 0 mm 2 m/s 707 mmHg 64%
    10:00 +2°C° 0 mm 2 m/s 708 mmHg 64%
    11:00 +3°C° 0 mm 2 m/s 708 mmHg 64%
    12:00 +4°C° 0 mm 2 m/s 708 mmHg 66%
    13:00 +4°C° 0 mm 2 m/s 708 mmHg 69%
    14:00 +6°C° 0 mm 1 m/s 708 mmHg 71%
    15:00 +5°C° 0 mm 1 m/s 708 mmHg 74%
    16:00 +4°C° 0 mm 1 m/s 708 mmHg 77%
    17:00 +3°C° 0 mm 1 m/s 709 mmHg 80%
    18:00 +3°C° 0 mm 1 m/s 709 mmHg 81%
    19:00 +2°C° 0 mm 1 m/s 709 mmHg 82%
    20:00 +1°C° 0 mm 2 m/s 710 mmHg 83%
    21:00 +1°C° 0 mm 2 m/s 710 mmHg 83%
    22:00 +2°C° 0 mm 1 m/s 710 mmHg 84%
    23:00 +2°C° 0 mm 1 m/s 711 mmHg 84%

    19 Janeiro, Sábado

    Tempo Temperatura Precipitação Vento Pressão Humidade
    00:00 +1°C° 0 mm 1 m/s 711 mmHg 84%
    01:00 +1°C° 0 mm 1 m/s 711 mmHg 85%
    02:00 +1°C° 0 mm 1 m/s 711 mmHg 85%
    03:00 0°C° 0 mm 0 m/s 711 mmHg 86%
    04:00 -1°C° 0 mm 0 m/s 711 mmHg 87%
    05:00 -1°C° 0 mm 0 m/s 711 mmHg 88%
    06:00 -1°C° 0 mm 0 m/s 711 mmHg 88%
    07:00 -1°C° 0 mm 0 m/s 711 mmHg 89%
    08:00 -2°C° 0 mm 0 m/s 711 mmHg 90%
    09:00 -1°C° 0 mm 0 m/s 711 mmHg 87%
    10:00 0°C° 0 mm 0 m/s 712 mmHg 84%
    11:00 +2°C° 0 mm 1 m/s 712 mmHg 82%
    12:00 +3°C° 0 mm 1 m/s 711 mmHg 82%
    13:00 +3°C° 0 mm 1 m/s 711 mmHg 81%
    14:00 +4°C° 0 mm 1 m/s 710 mmHg 81%
    15:00 +3°C° 0 mm 1 m/s 710 mmHg 85%
    16:00 +2°C° 0 mm 1 m/s 710 mmHg 89%
    17:00 +1°C° 0 mm 1 m/s 710 mmHg 93%
    18:00 +1°C° 0 mm 1 m/s 710 mmHg 93%
    19:00 0°C° 0 mm 1 m/s 710 mmHg 93%
    20:00 0°C° 0 mm 1 m/s 710 mmHg 93%
    21:00 0°C° 0 mm 1 m/s 710 mmHg 92%
    22:00 0°C° 0 mm 1 m/s 710 mmHg 91%
    23:00 0°C° 0 mm 1 m/s 710 mmHg 90%

    20 Janeiro, Domingo

    Tempo Temperatura Precipitação Vento Pressão Humidade
    00:00 0°C° 0 mm 1 m/s 709 mmHg 90%
    01:00 0°C° 0 mm 1 m/s 709 mmHg 90%
    02:00 0°C° 0 mm 1 m/s 709 mmHg 90%
    03:00 0°C° 0 mm 1 m/s 708 mmHg 90%
    04:00 0°C° 0 mm 1 m/s 708 mmHg 91%
    05:00 0°C° 0 mm 1 m/s 708 mmHg 91%
    06:00 0°C° 0 mm 1 m/s 708 mmHg 90%
    07:00 0°C° 0 mm 1 m/s 708 mmHg 90%
    08:00 0°C° 0 mm 1 m/s 708 mmHg 89%
    09:00 +1°C° 0 mm 1 m/s 708 mmHg 85%
    10:00 +2°C° 0 mm 1 m/s 708 mmHg 82%
    11:00 +4°C° 0 mm 1 m/s 708 mmHg 78%
    12:00 +4°C° 0 mm 1 m/s 707 mmHg 77%
    13:00 +5°C° 0 mm 1 m/s 707 mmHg 76%
    14:00 +6°C° 0 mm 1 m/s 707 mmHg 75%
    15:00 +5°C° 0.1 mm 1 m/s 706 mmHg 79%
    16:00 +4°C° 0.1 mm 1 m/s 706 mmHg 84%
    17:00 +3°C° 0.1 mm 1 m/s 706 mmHg 88%
    18:00 +3°C° 0.1 mm 1 m/s 706 mmHg 88%
    19:00 +3°C° 0.1 mm 1 m/s 706 mmHg 89%
    20:00 +2°C° 0.1 mm 1 m/s 706 mmHg 89%
    21:00 +2°C° 0 mm 1 m/s 706 mmHg 89%
    22:00 +2°C° 0 mm 1 m/s 706 mmHg 89%
    23:00 +1°C° 0 mm 1 m/s 706 mmHg 90%

    21 Janeiro, Segunda-feira

    Tempo Temperatura Precipitação Vento Pressão Humidade
    00:00 +1°C° 0 mm 1 m/s 706 mmHg 89%
    01:00 +1°C° 0 mm 1 m/s 706 mmHg 89%
    02:00 +2°C° 0 mm 1 m/s 706 mmHg 88%
    03:00 +2°C° 0.1 mm 1 m/s 706 mmHg 88%
    04:00 +2°C° 0.1 mm 1 m/s 706 mmHg 88%
    05:00 +2°C° 0.1 mm 1 m/s 706 mmHg 88%
    06:00 +2°C° 0 mm 1 m/s 707 mmHg 88%
    07:00 +1°C° 0 mm 1 m/s 707 mmHg 88%
    08:00 +1°C° 0 mm 1 m/s 707 mmHg 87%
    09:00 +3°C° 0 mm 1 m/s 707 mmHg 84%
    10:00 +4°C° 0 mm 1 m/s 708 mmHg 81%
    11:00 +5°C° 0 mm 1 m/s 708 mmHg 78%
    12:00 +5°C° 0 mm 1 m/s 708 mmHg 76%
    13:00 +6°C° 0 mm 1 m/s 708 mmHg 74%
    14:00 +6°C° 0 mm 2 m/s 708 mmHg 72%
    15:00 +6°C° 0 mm 1 m/s 708 mmHg 75%
    16:00 +5°C° 0 mm 1 m/s 708 mmHg 78%
    17:00 +4°C° 0 mm 1 m/s 709 mmHg 81%
    18:00 +4°C° 0 mm 1 m/s 709 mmHg 83%
    19:00 +2°C° 0 mm 0 m/s 709 mmHg 86%
    20:00 +1°C° 0 mm 0 m/s 710 mmHg 88%
    21:00 +1°C° 0 mm 0 m/s 710 mmHg 89%
    22:00 +1°C° 0 mm 1 m/s 710 mmHg 91%
    23:00 +1°C° 0 mm 1 m/s 710 mmHg 92%
    Mostrar mais